Main page
METAR-TAF:

METAR-TAF

Airports :

Jask, Iran

latitude: 26-38N, longitude: 057-46E, elevation: 3 m

Current weather observation

The report was made 36 minutes ago, at 04:00 UTC
Wind 14 kt from the East
Temperature 31°C
Humidity 89%
Pressure 1000 hPa
Visibility: 4000 m
mist

METAR: OIZJ 160400Z 09014KT 4000 BR NSC 31/29 Q1000

Time: 09:06 (04:36 UTC)


TAF: missing

Weather observations and forecasts of more than 4000 airports (METAR and TAF reports).

The available stations are represented by yellow and red dots on the map.

Hover mouse over dot to see the name of the station.

Then click to see weather observations and forecasts.

To change the map : click on the green buttons with a black cross to zoom in, on the green button with a dash to zoom out, or on the green arrows for adjacent maps.


METAR-TAF: